BAW22 EGLL-EDDF

Flight info

Callsign BAW22
Flight time 1h 11m
Altitude 35000
Route BPK Q295 MATCH DCT REDFA DCT TACHA DCT NOLRU DCT DIXAT DIXAT1A
Aircraft B77W/H-SDE1E2E3FGHIJ2J3J4J5M1RWXY/LB1D1

Departure

Time 2026-05-06 17:45
Airport London Heathrow Airport (EGLL)

Arrival

Time 2026-05-06 18:56
Airport Frankfurt Main Airport (EDDF)
Time Latitude Longitude Altitude Speed Heading
2026-05-06 17:22 51.47182 -0.48236 95 ft 0 kts 89°
2026-05-06 17:29 51.47182 -0.48250 94 ft 3 kts 89°
2026-05-06 17:29 51.47181 -0.48283 92 ft 3 kts 89°
2026-05-06 17:29 51.47181 -0.48311 92 ft 3 kts 94°
2026-05-06 17:29 51.47185 -0.48341 90 ft 3 kts 128°
2026-05-06 17:30 51.47199 -0.48357 92 ft 3 kts 175°
2026-05-06 17:30 51.47218 -0.48358 93 ft 3 kts 179°
2026-05-06 17:30 51.47237 -0.48358 93 ft 1 kts 179°
2026-05-06 17:30 51.47238 -0.48358 93 ft 0 kts 179°
2026-05-06 17:36 51.47237 -0.48358 93 ft 0 kts 179°
2026-05-06 17:36 51.47234 -0.48358 93 ft 1 kts 180°
2026-05-06 17:36 51.47219 -0.48358 93 ft 3 kts 179°
2026-05-06 17:36 51.47168 -0.48357 94 ft 13 kts 180°
2026-05-06 17:37 51.47063 -0.48356 94 ft 16 kts 180°
2026-05-06 17:37 51.46954 -0.48355 94 ft 16 kts 179°
2026-05-06 17:37 51.46863 -0.48354 92 ft 12 kts 180°
2026-05-06 17:37 51.46851 -0.48354 91 ft 0 kts 180°
2026-05-06 17:38 51.46849 -0.48354 91 ft 1 kts 180°
2026-05-06 17:38 51.46829 -0.48354 91 ft 7 kts 180°
2026-05-06 17:38 51.46764 -0.48374 95 ft 11 kts 222°
2026-05-06 17:38 51.46744 -0.48487 91 ft 11 kts 265°
2026-05-06 17:39 51.46741 -0.48611 91 ft 11 kts 269°
2026-05-06 17:39 51.46728 -0.48716 96 ft 9 kts 232°
2026-05-06 17:39 51.46702 -0.48738 95 ft 0 kts 194°
2026-05-06 17:41 51.46701 -0.48738 95 ft 0 kts 194°
2026-05-06 17:41 51.46683 -0.48743 94 ft 8 kts 188°
2026-05-06 17:41 51.46641 -0.48751 92 ft 0 kts 191°
2026-05-06 17:42 51.46641 -0.48752 92 ft 0 kts 191°
2026-05-06 17:42 51.46626 -0.48758 92 ft 6 kts 194°
2026-05-06 17:42 51.46569 -0.48778 94 ft 9 kts 183°
2026-05-06 17:43 51.46509 -0.48755 94 ft 9 kts 148°
2026-05-06 17:43 51.46481 -0.48667 94 ft 9 kts 95°
2026-05-06 17:43 51.46480 -0.48634 92 ft 0 kts 92°
2026-05-06 17:44 51.46479 -0.48566 91 ft 27 kts 91°
2026-05-06 17:44 51.46489 -0.47563 92 ft 152 kts 87°
2026-05-06 17:45 51.46497 -0.45351 639 ft 222 kts 86°
2026-05-06 17:45 51.46571 -0.42964 1597 ft 208 kts 80°
2026-05-06 17:45 51.46946 -0.40745 2295 ft 208 kts 63°
2026-05-06 17:45 51.47678 -0.38667 2861 ft 221 kts 54°
2026-05-06 17:46 51.48621 -0.36682 3822 ft 229 kts 47°
2026-05-06 17:46 51.49703 -0.34720 4693 ft 239 kts 45°
2026-05-06 17:46 51.50872 -0.32822 5710 ft 242 kts 43°
2026-05-06 17:46 51.51917 -0.30685 6777 ft 246 kts 57°
2026-05-06 17:47 51.52687 -0.28215 7689 ft 254 kts 63°
2026-05-06 17:47 51.53382 -0.25391 7350 ft 277 kts 68°
2026-05-06 17:47 51.53978 -0.22456 7125 ft 275 kts 69°
2026-05-06 17:47 51.54668 -0.19639 6844 ft 266 kts 54°
2026-05-06 17:48 51.56071 -0.17881 6835 ft 258 kts 16°
2026-05-06 17:48 51.57843 -0.17353 6885 ft 263 kts
2026-05-06 17:48 51.59659 -0.16798 6779 ft 268 kts
2026-05-06 17:48 51.61505 -0.16365 6818 ft 270 kts
2026-05-06 17:49 51.63360 -0.15787 6687 ft 272 kts 12°
2026-05-06 17:49 51.65189 -0.15071 6599 ft 270 kts 13°
2026-05-06 17:49 51.67005 -0.14314 6551 ft 268 kts 14°
2026-05-06 17:49 51.68806 -0.13520 6950 ft 269 kts 15°
2026-05-06 17:50 51.70588 -0.12714 8069 ft 269 kts 15°
2026-05-06 17:50 51.72411 -0.11881 9068 ft 274 kts 16°
2026-05-06 17:50 51.74106 -0.10418 9963 ft 285 kts 41°
2026-05-06 17:50 51.75197 -0.07717 10918 ft 294 kts 70°
2026-05-06 17:51 51.75593 -0.04458 11851 ft 299 kts 81°
2026-05-06 17:51 51.75860 -0.01078 12753 ft 307 kts 81°
2026-05-06 17:51 51.76124 0.02383 13715 ft 313 kts 81°
2026-05-06 17:51 51.76390 0.05858 14534 ft 313 kts 81°
2026-05-06 17:52 51.76668 0.09398 14983 ft 318 kts 81°
2026-05-06 17:52 51.76956 0.12975 14991 ft 325 kts 81°
2026-05-06 17:52 51.77250 0.16601 15002 ft 325 kts 81°
2026-05-06 17:52 51.77541 0.20204 14993 ft 322 kts 81°
2026-05-06 17:53 51.77817 0.23786 14987 ft 320 kts 81°
2026-05-06 17:53 51.78195 0.27263 14989 ft 317 kts 76°
2026-05-06 17:53 51.78301 0.28012 14992 ft 318 kts 75°
2026-05-06 17:53 51.78678 0.30457 15031 ft 340 kts 73°
2026-05-06 17:54 51.79318 0.34346 15125 ft 374 kts 73°
2026-05-06 17:54 51.80019 0.38557 15476 ft 398 kts 73°
2026-05-06 17:54 51.80742 0.42944 16243 ft 409 kts 74°
2026-05-06 17:54 51.81472 0.47441 17164 ft 416 kts 74°
2026-05-06 17:55 51.82205 0.52007 18183 ft 420 kts 75°
2026-05-06 17:55 51.82936 0.56613 19046 ft 426 kts 75°
2026-05-06 17:55 51.83675 0.61293 19845 ft 432 kts 75°
2026-05-06 17:55 51.84421 0.66039 20627 ft 438 kts 75°
2026-05-06 17:56 51.85165 0.70788 21401 ft 444 kts 75°
2026-05-06 17:56 51.85925 0.75662 22191 ft 450 kts 75°
2026-05-06 17:56 51.86694 0.80605 22937 ft 456 kts 75°
2026-05-06 17:56 51.87472 0.85615 23656 ft 462 kts 76°
2026-05-06 17:57 51.88255 0.90683 24277 ft 467 kts 76°
2026-05-06 17:57 51.89045 0.95803 24917 ft 470 kts 76°
2026-05-06 17:57 51.89838 1.00958 25571 ft 474 kts 76°
2026-05-06 17:57 51.90634 1.06153 26205 ft 477 kts 76°
2026-05-06 17:58 51.91434 1.11390 26825 ft 481 kts 76°
2026-05-06 17:58 51.92257 1.16797 27422 ft 485 kts 76°
2026-05-06 17:58 51.93048 1.22007 27983 ft 488 kts 76°
2026-05-06 17:58 51.93859 1.27371 28527 ft 492 kts 76°
2026-05-06 17:59 51.94673 1.32769 29048 ft 495 kts 76°
2026-05-06 17:59 51.95491 1.38217 29532 ft 498 kts 76°
2026-05-06 17:59 51.96312 1.43694 29987 ft 501 kts 76°
2026-05-06 17:59 51.97135 1.49216 30406 ft 503 kts 76°
2026-05-06 18:00 51.97952 1.54712 30948 ft 501 kts 76°
2026-05-06 18:00 51.98766 1.60203 31488 ft 499 kts 76°
2026-05-06 18:00 51.99564 1.65608 32023 ft 498 kts 76°
2026-05-06 18:00 52.00367 1.71068 32505 ft 497 kts 76°
2026-05-06 18:01 52.01169 1.76538 32998 ft 496 kts 76°
2026-05-06 18:01 52.01965 1.81984 33497 ft 495 kts 76°
2026-05-06 18:01 52.02758 1.87430 33990 ft 494 kts 76°
2026-05-06 18:01 52.03546 1.92860 34337 ft 495 kts 76°
2026-05-06 18:02 52.04333 1.98309 34655 ft 496 kts 76°
2026-05-06 18:02 52.05121 2.03777 34946 ft 497 kts 77°
2026-05-06 18:02 52.05905 2.09238 35344 ft 496 kts 77°
2026-05-06 18:02 52.06677 2.14635 35650 ft 497 kts 77°
2026-05-06 18:03 52.07456 2.20106 35974 ft 497 kts 77°
2026-05-06 18:03 52.08235 2.25590 36270 ft 498 kts 77°
2026-05-06 18:03 52.09011 2.31074 36588 ft 498 kts 77°
2026-05-06 18:03 52.09788 2.36580 36869 ft 500 kts 77°
2026-05-06 18:04 52.11348 2.47679 36964 ft 505 kts 76°
2026-05-06 18:04 52.13298 2.58652 36949 ft 501 kts 72°
2026-05-06 18:05 52.15394 2.69438 36957 ft 498 kts 72°
2026-05-06 18:05 52.17450 2.80192 36955 ft 497 kts 73°
2026-05-06 18:06 52.19471 2.90973 36958 ft 498 kts 73°
2026-05-06 18:06 52.21472 3.01738 36947 ft 500 kts 73°
2026-05-06 18:07 52.23493 3.12642 36957 ft 504 kts 73°
2026-05-06 18:07 52.24535 3.19874 36935 ft 505 kts 85°
2026-05-06 18:08 52.24566 3.25584 36965 ft 503 kts 96°
2026-05-06 18:08 52.23988 3.31214 36935 ft 502 kts 107°
2026-05-06 18:08 52.21523 3.41801 36944 ft 499 kts 113°
2026-05-06 18:09 52.18900 3.52272 36929 ft 499 kts 114°
2026-05-06 18:09 52.16320 3.62762 36940 ft 498 kts 113°
2026-05-06 18:10 52.13789 3.73191 36932 ft 498 kts 113°
2026-05-06 18:10 52.11245 3.83676 36928 ft 497 kts 113°
2026-05-06 18:11 52.08695 3.94124 36931 ft 497 kts 113°
2026-05-06 18:11 52.06138 4.04543 36927 ft 496 kts 113°
2026-05-06 18:12 52.03570 4.14950 36923 ft 495 kts 113°
2026-05-06 18:12 52.01015 4.25257 36913 ft 493 kts 113°
2026-05-06 18:13 51.98444 4.35583 36913 ft 493 kts 113°
2026-05-06 18:13 51.95868 4.45880 36902 ft 492 kts 113°
2026-05-06 18:14 51.93285 4.56156 36913 ft 492 kts 114°
2026-05-06 18:14 51.90696 4.66409 36915 ft 492 kts 114°
2026-05-06 18:15 51.88095 4.76662 36917 ft 492 kts 114°
2026-05-06 18:15 51.85485 4.86905 36918 ft 492 kts 114°
2026-05-06 18:16 51.82864 4.97144 36917 ft 492 kts 114°
2026-05-06 18:16 51.80250 5.07307 36914 ft 492 kts 114°
2026-05-06 18:17 51.77616 5.17504 36916 ft 492 kts 114°
2026-05-06 18:17 51.74971 5.27697 36913 ft 492 kts 114°
2026-05-06 18:18 51.72331 5.37829 36909 ft 492 kts 114°
2026-05-06 18:18 51.69668 5.48000 36912 ft 492 kts 115°
2026-05-06 18:19 51.67002 5.58137 36903 ft 491 kts 115°
2026-05-06 18:19 51.64326 5.68266 36913 ft 491 kts 115°
2026-05-06 18:20 51.61646 5.78369 36912 ft 491 kts 115°
2026-05-06 18:20 51.58960 5.88448 36912 ft 490 kts 115°
2026-05-06 18:21 51.56263 5.98525 36907 ft 490 kts 115°
2026-05-06 18:21 51.53558 6.08589 36915 ft 490 kts 115°
2026-05-06 18:22 51.50864 6.18577 36918 ft 490 kts 115°
2026-05-06 18:22 51.48231 6.28671 36900 ft 490 kts 113°
2026-05-06 18:23 51.45769 6.38879 36903 ft 490 kts 113°
2026-05-06 18:23 51.43316 6.49010 36900 ft 491 kts 113°
2026-05-06 18:24 51.40804 6.59202 36885 ft 491 kts 114°
2026-05-06 18:24 51.38269 6.69391 36881 ft 491 kts 114°
2026-05-06 18:25 51.35734 6.79540 36878 ft 491 kts 114°
2026-05-06 18:25 51.34453 6.84647 36283 ft 499 kts 114°
2026-05-06 18:25 51.33163 6.89788 35583 ft 492 kts 114°
2026-05-06 18:26 51.31918 6.94742 34773 ft 480 kts 114°
2026-05-06 18:26 51.30683 6.99648 33946 ft 470 kts 114°
2026-05-06 18:26 51.29470 7.04451 32969 ft 461 kts 114°
2026-05-06 18:26 51.28275 7.09160 32060 ft 453 kts 114°
2026-05-06 18:27 51.26744 7.13552 31169 ft 455 kts 130°
2026-05-06 18:27 51.24424 7.17057 30376 ft 465 kts 148°
2026-05-06 18:27 51.21543 7.19487 29719 ft 473 kts 157°
2026-05-06 18:27 51.18550 7.21666 28931 ft 472 kts 156°
2026-05-06 18:28 51.15605 7.23904 28243 ft 466 kts 155°
2026-05-06 18:28 51.12744 7.26157 27591 ft 460 kts 155°
2026-05-06 18:28 51.09897 7.28455 26940 ft 455 kts 154°
2026-05-06 18:28 51.07097 7.30781 26297 ft 450 kts 153°
2026-05-06 18:29 51.05257 7.32311 25863 ft 448 kts 153°
2026-05-06 18:29 51.02505 7.34592 25256 ft 443 kts 154°
2026-05-06 18:29 50.99781 7.36837 24654 ft 440 kts 154°
2026-05-06 18:29 50.97067 7.39068 24055 ft 438 kts 154°
2026-05-06 18:30 50.93487 7.42007 23234 ft 436 kts 154°
2026-05-06 18:30 50.91667 7.43500 22776 ft 435 kts 154°
2026-05-06 18:30 50.88988 7.45695 22141 ft 431 kts 154°
2026-05-06 18:30 50.86369 7.47838 21555 ft 426 kts 154°
2026-05-06 18:31 50.83716 7.50005 20957 ft 422 kts 154°
2026-05-06 18:31 50.81147 7.52101 20368 ft 419 kts 154°
2026-05-06 18:31 50.78553 7.54216 19794 ft 417 kts 154°
2026-05-06 18:31 50.75981 7.56310 19226 ft 416 kts 155°
2026-05-06 18:32 50.73418 7.58395 18655 ft 413 kts 155°
2026-05-06 18:32 50.70871 7.60463 18094 ft 410 kts 155°
2026-05-06 18:32 50.68346 7.62511 17501 ft 406 kts 155°
2026-05-06 18:32 50.65840 7.64541 16989 ft 402 kts 155°
2026-05-06 18:33 50.63364 7.66545 16487 ft 398 kts 155°
2026-05-06 18:33 50.60903 7.68533 16009 ft 395 kts 155°
2026-05-06 18:33 50.58457 7.70506 15565 ft 393 kts 155°
2026-05-06 18:33 50.56058 7.72439 15102 ft 390 kts 155°
2026-05-06 18:34 50.53642 7.74382 14691 ft 388 kts 155°
2026-05-06 18:34 50.51237 7.76315 14270 ft 386 kts 155°
2026-05-06 18:34 50.48852 7.78231 13834 ft 384 kts 155°
2026-05-06 18:34 50.46474 7.80139 13350 ft 383 kts 155°
2026-05-06 18:35 50.44105 7.82038 12890 ft 381 kts 155°
2026-05-06 18:35 50.41857 7.84192 12509 ft 377 kts 146°
2026-05-06 18:35 50.39802 7.86726 12158 ft 374 kts 142°
2026-05-06 18:35 50.37840 7.89311 11799 ft 370 kts 142°
2026-05-06 18:36 50.35881 7.91874 11457 ft 363 kts 142°
2026-05-06 18:36 50.33941 7.94356 11112 ft 355 kts 143°
2026-05-06 18:36 50.32032 7.96748 10785 ft 349 kts 144°
2026-05-06 18:36 50.30151 7.99080 10456 ft 337 kts 144°
2026-05-06 18:37 50.28380 8.01269 10118 ft 310 kts 144°
2026-05-06 18:37 50.26755 8.03278 9906 ft 284 kts 144°
2026-05-06 18:37 50.25360 8.05420 9846 ft 285 kts 132°
2026-05-06 18:37 50.24154 8.07846 9846 ft 290 kts 129°
2026-05-06 18:38 50.22960 8.10386 9815 ft 286 kts 129°
2026-05-06 18:38 50.21790 8.12862 9818 ft 282 kts 129°
2026-05-06 18:38 50.20613 8.15327 9816 ft 282 kts 128°
2026-05-06 18:38 50.19862 8.18130 9827 ft 286 kts 97°
2026-05-06 18:39 50.19918 8.21260 9839 ft 293 kts 87°
2026-05-06 18:39 50.20053 8.24422 9839 ft 296 kts 88°
2026-05-06 18:39 50.20173 8.27631 9819 ft 295 kts 88°
2026-05-06 18:40 50.20377 8.33986 9809 ft 291 kts 89°
2026-05-06 18:40 50.20465 8.37130 9808 ft 290 kts 89°
2026-05-06 18:40 50.20546 8.40266 9827 ft 288 kts 89°
2026-05-06 18:40 50.20624 8.43398 9829 ft 288 kts 89°
2026-05-06 18:41 50.20698 8.46525 9813 ft 288 kts 89°
2026-05-06 18:41 50.20771 8.49656 9823 ft 289 kts 89°
2026-05-06 18:41 50.20843 8.52788 9830 ft 288 kts 89°
2026-05-06 18:41 50.20912 8.55873 9835 ft 289 kts 89°
2026-05-06 18:42 50.20981 8.59007 9826 ft 289 kts 89°
2026-05-06 18:42 50.21050 8.62159 9830 ft 290 kts 89°
2026-05-06 18:42 50.21117 8.65312 9832 ft 291 kts 89°
2026-05-06 18:42 50.21184 8.68472 9828 ft 292 kts 90°
2026-05-06 18:43 50.21251 8.71640 9826 ft 292 kts 90°
2026-05-06 18:43 50.21316 8.74806 9750 ft 291 kts 90°
2026-05-06 18:43 50.21382 8.77958 9504 ft 289 kts 90°
2026-05-06 18:43 50.21445 8.81091 9177 ft 288 kts 90°
2026-05-06 18:44 50.21506 8.84208 8848 ft 287 kts 90°
2026-05-06 18:44 50.21584 8.87307 8497 ft 283 kts 85°
2026-05-06 18:44 50.22054 8.90245 8059 ft 285 kts 70°
2026-05-06 18:44 50.22776 8.93136 7740 ft 284 kts 69°
2026-05-06 18:45 50.23497 8.96000 7468 ft 282 kts 69°
2026-05-06 18:45 50.24197 8.98841 7221 ft 278 kts 70°
2026-05-06 18:45 50.24868 9.01641 7081 ft 274 kts 70°
2026-05-06 18:45 50.25531 9.04460 6809 ft 279 kts 70°
2026-05-06 18:46 50.26198 9.07314 6621 ft 280 kts 70°
2026-05-06 18:46 50.26865 9.10175 6409 ft 280 kts 70°
2026-05-06 18:46 50.27490 9.13054 6168 ft 275 kts 79°
2026-05-06 18:46 50.27476 9.15996 5921 ft 270 kts 108°
2026-05-06 18:47 50.26599 9.18513 5677 ft 263 kts 137°
2026-05-06 18:47 50.25101 9.20017 5441 ft 254 kts 167°
2026-05-06 18:47 50.23394 9.20167 5246 ft 251 kts 196°
2026-05-06 18:47 50.21804 9.18932 5302 ft 269 kts 218°
2026-05-06 18:48 50.20367 9.17053 5341 ft 266 kts 223°
2026-05-06 18:48 50.19004 9.15146 4973 ft 257 kts 223°
2026-05-06 18:48 50.17713 9.13320 4605 ft 246 kts 223°
2026-05-06 18:48 50.16568 9.11361 4236 ft 244 kts 242°
2026-05-06 18:49 50.15963 9.08892 4012 ft 246 kts 253°
2026-05-06 18:49 50.15400 9.06349 3993 ft 247 kts 250°
2026-05-06 18:49 50.14812 9.03909 3973 ft 239 kts 250°
2026-05-06 18:49 50.14239 9.01524 3967 ft 229 kts 250°
2026-05-06 18:50 50.13690 8.99227 3999 ft 229 kts 250°
2026-05-06 18:50 50.13138 8.96910 4007 ft 222 kts 250°
2026-05-06 18:50 50.12600 8.94652 4009 ft 223 kts 250°
2026-05-06 18:50 50.12060 8.92386 3993 ft 223 kts 250°
2026-05-06 18:51 50.11523 8.90130 3993 ft 222 kts 250°
2026-05-06 18:51 50.10987 8.87883 3992 ft 220 kts 250°
2026-05-06 18:51 50.10458 8.85665 3993 ft 218 kts 250°
2026-05-06 18:51 50.09940 8.83494 3990 ft 212 kts 250°
2026-05-06 18:52 50.09459 8.81474 3820 ft 189 kts 250°
2026-05-06 18:52 50.09030 8.79625 3480 ft 173 kts 252°
2026-05-06 18:52 50.08623 8.77906 3180 ft 167 kts 249°
2026-05-06 18:52 50.08199 8.76218 3051 ft 167 kts 250°
2026-05-06 18:53 50.07761 8.74604 2993 ft 152 kts 250°
2026-05-06 18:53 50.07403 8.73088 2646 ft 146 kts 253°
2026-05-06 18:53 50.07056 8.71632 2295 ft 139 kts 253°
2026-05-06 18:53 50.06706 8.70211 2024 ft 144 kts 252°
2026-05-06 18:54 50.06353 8.68782 1742 ft 136 kts 253°
2026-05-06 18:54 50.06048 8.67448 1461 ft 129 kts 255°
2026-05-06 18:54 50.05754 8.66097 1343 ft 137 kts 254°
2026-05-06 18:54 50.05427 8.64710 1224 ft 141 kts 253°
2026-05-06 18:55 50.05085 8.63308 1049 ft 135 kts 253°
2026-05-06 18:55 50.04762 8.61936 855 ft 135 kts 254°
2026-05-06 18:55 50.04440 8.60552 659 ft 136 kts 253°
2026-05-06 18:55 50.04122 8.59179 473 ft 135 kts 253°
2026-05-06 18:56 50.03801 8.57808 371 ft 129 kts 252°
2026-05-06 18:56 50.03530 8.56660 363 ft 85 kts 249°
2026-05-06 18:56 50.03441 8.56030 354 ft 35 kts 279°
2026-05-06 18:56 50.03459 8.55857 353 ft 0 kts 279°
2026-05-06 18:58 50.03460 8.55845 352 ft 4 kts 279°
2026-05-06 18:58 50.03469 8.55764 355 ft 11 kts 279°
2026-05-06 18:58 50.03485 8.55616 352 ft 16 kts 279°
2026-05-06 18:58 50.03494 8.55532 359 ft 0 kts 279°
2026-05-06 18:59 50.03497 8.55526 357 ft 2 kts 302°
2026-05-06 18:59 50.03518 8.55530 359 ft 4 kts 41°
2026-05-06 18:59 50.03527 8.55598 360 ft 11 kts 76°
2026-05-06 19:00 50.03578 8.55829 357 ft 29 kts 70°
2026-05-06 19:00 50.03647 8.56116 365 ft 29 kts 69°
2026-05-06 19:00 50.03716 8.56408 363 ft 29 kts 70°
2026-05-06 19:00 50.03763 8.56605 362 ft 29 kts 69°
2026-05-06 19:01 50.03855 8.56992 366 ft 29 kts 70°
2026-05-06 19:01 50.03925 8.57284 370 ft 29 kts 69°
2026-05-06 19:01 50.03995 8.57575 374 ft 29 kts 70°
2026-05-06 19:01 50.04065 8.57866 374 ft 29 kts 70°
2026-05-06 19:02 50.04135 8.58159 374 ft 29 kts 69°
2026-05-06 19:02 50.04205 8.58450 377 ft 29 kts 69°
2026-05-06 19:02 50.04277 8.58740 377 ft 29 kts 69°
2026-05-06 19:02 50.04346 8.59032 382 ft 29 kts 69°
2026-05-06 19:03 50.04406 8.59285 381 ft 20 kts 71°
2026-05-06 19:03 50.04451 8.59439 380 ft 11 kts 45°
2026-05-06 19:03 50.04517 8.59470 379 ft 7 kts 359°
2026-05-06 19:03 50.04534 8.59469 379 ft 1 kts 358°
2026-05-06 19:04 50.04545 8.59468 379 ft 2 kts 357°
2026-05-06 19:04 50.04570 8.59467 378 ft 5 kts 358°
2026-05-06 19:04 50.04608 8.59464 377 ft 6 kts 355°
2026-05-06 19:04 50.04654 8.59456 377 ft 7 kts 351°
2026-05-06 19:05 50.04705 8.59438 377 ft 8 kts 345°
2026-05-06 19:05 50.04770 8.59401 377 ft 15 kts 339°
2026-05-06 19:05 50.04886 8.59370 378 ft 19 kts
2026-05-06 19:05 50.04998 8.59336 370 ft 16 kts 341°
2026-05-06 19:06 50.05074 8.59218 370 ft 17 kts 275°
2026-05-06 19:06 50.05050 8.59081 368 ft 5 kts 252°
2026-05-06 19:06 50.05056 8.59029 370 ft 5 kts 299°
2026-05-06 19:06 50.05085 8.58994 367 ft 6 kts 339°
2026-05-06 19:07 50.05115 8.58977 368 ft 0 kts 340°
2026-05-06 19:07 50.05118 8.58975 368 ft 1 kts 339°
2026-05-06 19:07 50.05121 8.58973 368 ft 0 kts 340°